Regional Weather Roundup
Issued by NWS

Home | Current Version | Previous Version | Graphics & Text | Print | Product List | Glossary On
Versions: 1 2 3 4 5 6 7 8 9 10 11 12 13 14 15 16 17 18 19 20 21 22 23 24 25 26 27 28 29 30 31 32 33 34 35 36 37 38 39 40 41 42 43 44 45 46 47 48 49 50
000
ASUS44 KMEG 242200
RWRTN
TENNESSEE HOURLY STATE WEATHER ROUNDUP
NATIONAL WEATHER SERVICE MEMPHIS TN
500 PM CDT FRI APR 24 2015

TNZ002-004-019-021-049-052-054-088>092-242300-
WEST TENNESSEE

CITY           SKY/WX    TMP DP  RH WIND       PRES   REMARKS
MEMPHIS INTL   LGT RAIN  58  53  84 SE8       29.92F
NWS MEMPHIS      N/A     56 N/A N/A MISG        N/A
JACKSON        LGT RAIN  58  52  80 SE3       29.97S
DYERSBURG      CLOUDY    59  39  47 SE10      29.93F
UNION CITY     CLOUDY    55  32  41 SE7       29.93F
PARIS          CLOUDY    55  46  71 SE3       29.96F
LEXINGTON      CLOUDY    57  54  88 SW3       29.98R
SAVANNAH       CLOUDY    61  32  33 CALM      29.99S
$$

TNZ008-025-027-028-033-062-065-066-242300-
NORTH MIDDLE TENNESSEE

CITY           SKY/WX    TMP DP  RH WIND       PRES   REMARKS
NASHVILLE      CLOUDY    67  32  27 CALM      29.98S
CLARKSVILLE    LGT RAIN  60  40  47 S6        29.96F
COOKEVILLE     SUNNY     66  34  30 CALM      29.97F
CROSSVILLE     CLOUDY    65  26  23 SE5       30.01S
$$

TNZ061-075-076-078-094-096-097-242300-
SOUTH MIDDLE TENNESSEE

CITY           SKY/WX    TMP DP  RH WIND       PRES   REMARKS
FAYETTEVILLE     N/A     68  36  30 SW7       29.98S
TULLAHOMA      MOSUNNY   70  32  24 CALM      29.98S
WINCHESTER     MOSUNNY   72  37  28 VRB3      29.97F
MCMINNVILLE    SUNNY     66  36  32 CALM      29.98F
COLUMBIA       CLOUDY    66  32  28 CALM      29.96S
SHELBYVILLE    PTSUNNY   70  45  40 CALM      29.98F
$$

TNZ017-018-042-046-047-242300-
NORTHEAST TENNESSEE

CITY           SKY/WX    TMP DP  RH WIND       PRES   REMARKS
TRI CITIES     PTSUNNY   65  24  21 CALM      29.99F
ELIZABETHTON   CLEAR     63  25  23 W5        29.99S
$$

TNZ012-013-036-069-073-074-242300-
CENTRAL EAST TENNESSEE

CITY           SKY/WX    TMP DP  RH WIND       PRES   REMARKS
KNOXVILLE      CLOUDY    64  28  25 NW5       29.99R
OAK RIDGE      CLOUDY    67  26  21 VRB3      30.01R
GATLINBURG     CLEAR     64  27  24 CALM      29.99S
$$

TNZ083-085-099-242300-
SOUTHEAST TENNESSEE

CITY           SKY/WX    TMP DP  RH WIND       PRES   REMARKS
CHATTANOOGA    CLOUDY    71  29  21 CALM      29.99F
$$

SKY/WX REPORTED AS FAIR MEANS FEW OR NO CLOUDS BELOW
12 THOUSAND FEET.



USA.gov is the U.S. government's official web portal to all federal, state and local government web resources and services.